Voltar ao catálogo

ATLAS 5 CENTAUR DEB

AtivoHEO
NORAD 46865·DEBRIS·🇺🇸 United States

Lançado Oct 17, 2018 de Cape Canaveral Space Force Station

Loading…

Próximas Passagens (próximas 24 horas)

TLE

AtualizadoSource: Space-Track

Época: Sep 11, 2026, 09:58 UTC

1 46865U 18079DW  26254.41551362 -.00000183  00000-0  00000-0 0  9993
2 46865  13.2228  22.5627 4529991 348.0659   3.9190  1.88836544 40404

Acompanhe ATLAS 5 CENTAUR DEB em tempo real com AllMySat

Download on the App Store